| time (UTC) | temp F | wind direction | speed knots | gust knots | rain 1hr in | rain 24hr in | rain mn in | humidity % | barometer mb |
| 20260505012046 | 45 | 196 | 5.2 | 10.4 | 0.00 | 0.11 | 0.03 | 89 | 1009.4 |
| 20260505011551 | 45 | 195 | 4.3 | 12.2 | 0.00 | 0.11 | 0.03 | 89 | 1009.5 |
| 20260505011043 | 45 | 196 | 6.1 | 12.2 | 0.00 | 0.11 | 0.03 | 88 | 1009.5 |
| 20260505010544 | 45 | 184 | 7.0 | 13.9 | 0.00 | 0.11 | 0.03 | 89 | 1009.4 |
| 20260505010107 | 45 | 177 | 7.0 | 13.9 | 0.00 | 0.11 | 0.03 | 89 | 1009.3 |
| 20260505005545 | 45 | 201 | 7.8 | 13.9 | 0.00 | 0.31 | 0.03 | 89 | 1009.3 |
| 20260505005043 | 45 | 193 | 7.8 | 13.0 | 0.00 | 0.31 | 0.03 | 89 | 1009.1 |
| 20260505004552 | 45 | 196 | 7.0 | 12.2 | 0.00 | 0.31 | 0.03 | 89 | 1009.1 |
| 20260505004041 | 45 | 200 | 7.8 | 13.9 | 0.00 | 0.31 | 0.03 | 89 | 1009.1 |
| 20260505003545 | 45 | 194 | 7.0 | 13.9 | 0.00 | 0.31 | 0.03 | 88 | 1008.9 |
| 20260505003053 | 45 | 190 | 7.8 | 13.0 | 0.00 | 0.31 | 0.03 | 88 | 1008.9 |
| 20260505002546 | 45 | 208 | 8.7 | 13.0 | 0.00 | 0.31 | 0.03 | 89 | 1008.9 |
| 20260505002046 | 45 | 180 | 7.0 | 12.2 | 0.00 | 0.31 | 0.03 | 88 | 1008.8 |
| 20260505001553 | 45 | 209 | 8.7 | 12.2 | 0.00 | 0.31 | 0.03 | 89 | 1008.9 |
| 20260505001047 | 45 | 217 | 6.1 | 13.9 | 0.00 | 0.31 | 0.03 | 89 | 1008.8 |
| 20260505000545 | 45 | 214 | 7.0 | 13.9 | 0.00 | 0.31 | 0.03 | 88 | 1008.8 |
| 20260505000100 | 45 | 205 | 7.8 | 12.2 | 0.00 | 0.31 | 0.03 | 88 | 1008.8 |
| 20260504235547 | 45 | 192 | 7.0 | 12.2 | 0.00 | 0.51 | 0.03 | 88 | 1008.7 |
| 20260504235042 | 45 | 206 | 6.1 | 12.2 | 0.00 | 0.51 | 0.03 | 88 | 1008.5 |
| 20260504234553 | 45 | 207 | 7.0 | 13.0 | 0.00 | 0.51 | 0.03 | 88 | 1008.5 |
| 20260504234045 | 45 | 204 | 7.0 | 13.0 | 0.00 | 0.51 | 0.03 | 88 | 1008.4 |
| 20260504233543 | 45 | 223 | 7.0 | 11.3 | 0.00 | 0.51 | 0.03 | 87 | 1008.4 |
| 20260504233057 | 45 | 181 | 7.8 | 13.0 | 0.00 | 0.51 | 0.03 | 87 | 1008.1 |
| 20260504232544 | 45 | 198 | 7.0 | 13.9 | 0.00 | 0.51 | 0.03 | 87 | 1008.0 |
| 20260504232044 | 45 | 206 | 7.8 | 13.9 | 0.00 | 0.51 | 0.03 | 87 | 1008.0 |
| 20260504231556 | 45 | 197 | 6.1 | 11.3 | 0.00 | 0.51 | 0.03 | 88 | 1008.1 |
| 20260504231045 | 45 | 209 | 7.0 | 12.2 | 0.00 | 0.51 | 0.03 | 87 | 1008.0 |
| 20260504230545 | 45 | 223 | 7.0 | 12.2 | 0.00 | 0.51 | 0.03 | 87 | 1007.9 |
| 20260504230110 | 45 | 223 | 7.0 | 12.2 | 0.00 | 0.51 | 0.03 | 87 | 1007.8 |
| 20260504225548 | 46 | 209 | 7.0 | 12.2 | 0.00 | 0.70 | 0.03 | 87 | 1007.6 |
| 20260504225047 | 46 | 213 | 7.8 | 13.9 | 0.00 | 0.70 | 0.03 | 87 | 1007.6 |
| 20260504224607 | 46 | 215 | 8.7 | 14.8 | 0.00 | 0.70 | 0.03 | 87 | 1007.5 |
| 20260504224045 | 46 | 215 | 8.7 | 14.8 | 0.00 | 0.70 | 0.03 | 87 | 1007.4 |
| 20260504223544 | 46 | 189 | 7.8 | 13.0 | 0.00 | 0.70 | 0.03 | 86 | 1007.2 |
| 20260504223100 | 46 | 181 | 7.0 | 13.9 | 0.00 | 0.70 | 0.03 | 85 | 1007.1 |
| 20260504222544 | 47 | 217 | 7.8 | 13.9 | 0.00 | 0.70 | 0.03 | 84 | 1007.2 |
| 20260504222043 | 47 | 184 | 8.7 | 17.4 | 0.00 | 0.70 | 0.03 | 85 | 1006.9 |
| 20260504221549 | 47 | 213 | 7.0 | 17.4 | 0.00 | 0.70 | 0.03 | 85 | 1007.0 |
| 20260504221043 | 47 | 182 | 6.1 | 13.9 | 0.00 | 0.70 | 0.03 | 86 | 1006.8 |
| 20260504220541 | 47 | 182 | 7.0 | 13.9 | 0.00 | 0.70 | 0.03 | 85 | 1006.7 |
| 20260504220056 | 47 | 173 | 7.8 | 15.6 | 0.00 | 0.70 | 0.03 | 85 | 1006.7 |
| 20260504215544 | 47 | 192 | 7.8 | 16.5 | 0.00 | 0.74 | 0.03 | 85 | 1006.6 |
| 20260504215044 | 47 | 173 | 9.6 | 16.5 | 0.00 | 0.74 | 0.03 | 84 | 1006.7 |
| 20260504214551 | 48 | 160 | 8.7 | 17.4 | 0.00 | 0.74 | 0.03 | 83 | 1006.9 |
| 20260504214045 | 48 | 184 | 7.0 | 17.4 | 0.00 | 0.74 | 0.03 | 84 | 1006.7 |
| 20260504213545 | 48 | 196 | 8.7 | 16.5 | 0.00 | 0.74 | 0.03 | 83 | 1006.9 |
| 20260504213048 | 49 | 199 | 8.7 | 19.1 | 0.00 | 0.74 | 0.03 | 82 | 1006.8 |
| 20260504212545 | 49 | 155 | 8.7 | 19.1 | 0.00 | 0.74 | 0.03 | 81 | 1006.9 |
| 20260504212045 | 50 | 170 | 7.0 | 15.6 | 0.00 | 0.74 | 0.03 | 82 | 1006.8 |
| 20260504211557 | 49 | 169 | 8.7 | 15.6 | 0.00 | 0.74 | 0.03 | 83 | 1006.8 |
| 20260504211043 | 49 | 207 | 7.0 | 14.8 | 0.00 | 0.74 | 0.03 | 84 | 1006.8 |
| 20260504210543 | 49 | 182 | 7.8 | 13.9 | 0.00 | 0.74 | 0.03 | 84 | 1006.9 |
| 20260504210101 | 48 | 159 | 7.0 | 13.9 | 0.00 | 0.74 | 0.03 | 86 | 1006.9 |
| 20260504205544 | 47 | 176 | 7.0 | 14.8 | 0.00 | 0.74 | 0.03 | 86 | 1007.0 |
| 20260504205041 | 47 | 180 | 7.8 | 14.8 | 0.00 | 0.74 | 0.03 | 86 | 1007.2 |
| 20260504204554 | 47 | 185 | 7.0 | 13.9 | 0.00 | 0.74 | 0.03 | 86 | 1007.2 |
| 20260504204041 | 47 | 173 | 7.0 | 16.5 | 0.00 | 0.74 | 0.03 | 86 | 1007.2 |
| 20260504203541 | 47 | 180 | 7.0 | 16.5 | 0.00 | 0.74 | 0.03 | 86 | 1007.3 |
| 20260504203048 | 47 | 186 | 7.0 | 13.9 | 0.00 | 0.74 | 0.03 | 86 | 1007.3 |
| 20260504202541 | 47 | 163 | 6.1 | 13.0 | 0.00 | 0.74 | 0.03 | 86 | 1007.3 |
| 20260504202041 | 46 | 192 | 6.1 | 13.0 | 0.00 | 0.74 | 0.03 | 86 | 1007.3 |
| 20260504201551 | 46 | 180 | 7.0 | 13.0 | 0.00 | 0.74 | 0.03 | 86 | 1007.3 |
| 20260504201044 | 46 | 166 | 7.8 | 13.0 | 0.00 | 0.74 | 0.03 | 86 | 1007.3 |
| 20260504200542 | 47 | 184 | 7.0 | 13.9 | 0.00 | 0.74 | 0.03 | 85 | 1007.4 |
| 20260504200101 | 47 | 183 | 7.0 | 15.6 | 0.00 | 0.74 | 0.03 | 85 | 1007.4 |
| 20260504195544 | 47 | 195 | 6.1 | 15.6 | 0.00 | 0.79 | 0.03 | 85 | 1007.5 |
| 20260504195042 | 47 | 197 | 8.7 | 15.6 | 0.00 | 0.79 | 0.03 | 85 | 1007.4 |
| 20260504194550 | 47 | 209 | 7.8 | 17.4 | 0.00 | 0.79 | 0.03 | 85 | 1007.3 |
| 20260504194041 | 47 | 201 | 7.8 | 17.4 | 0.00 | 0.79 | 0.03 | 85 | 1007.4 |
| 20260504193543 | 48 | 180 | 8.7 | 16.5 | 0.00 | 0.79 | 0.03 | 84 | 1007.4 |
| 20260504193051 | 48 | 190 | 7.8 | 15.6 | 0.00 | 0.79 | 0.03 | 85 | 1007.4 |
| 20260504192545 | 47 | 219 | 8.7 | 17.4 | 0.00 | 0.79 | 0.03 | 85 | 1007.2 |
| 20260504192044 | 47 | 175 | 8.7 | 17.4 | 0.00 | 0.79 | 0.03 | 84 | 1007.3 |
| 20260504191605 | 48 | 175 | 10.4 | 21.7 | 0.00 | 0.79 | 0.03 | 81 | 1007.2 |
| 20260504191045 | 50 | 205 | 9.6 | 21.7 | 0.00 | 0.79 | 0.03 | 81 | 1007.0 |
| 20260504190547 | 50 | 163 | 12.2 | 21.7 | 0.00 | 0.79 | 0.03 | 80 | 1007.0 |
| 20260504190051 | 51 | 188 | 10.4 | 21.7 | 0.00 | 0.79 | 0.03 | 79 | 1006.9 |
| 20260504185542 | 51 | 167 | 10.4 | 21.7 | 0.00 | 0.90 | 0.03 | 80 | 1006.9 |
| 20260504185043 | 51 | 213 | 9.6 | 20.9 | 0.00 | 0.90 | 0.03 | 80 | 1006.8 |
| 20260504184552 | 50 | 177 | 11.3 | 20.0 | 0.00 | 0.90 | 0.03 | 80 | 1006.8 |
| 20260504184043 | 50 | 186 | 11.3 | 20.0 | 0.00 | 0.90 | 0.03 | 80 | 1006.8 |
| 20260504183544 | 51 | 169 | 8.7 | 20.0 | 0.00 | 0.90 | 0.03 | 80 | 1006.9 |
| 20260504183050 | 50 | 188 | 9.6 | 20.0 | 0.00 | 0.90 | 0.03 | 80 | 1007.0 |
| 20260504182541 | 50 | 163 | 11.3 | 20.0 | 0.00 | 0.90 | 0.03 | 80 | 1007.0 |
| 20260504182044 | 50 | 205 | 12.2 | 20.0 | 0.00 | 0.90 | 0.03 | 79 | 1007.1 |
| 20260504181553 | 50 | 181 | 9.6 | 21.7 | 0.00 | 0.90 | 0.03 | 81 | 1007.0 |
| 20260504181041 | 49 | 180 | 10.4 | 22.6 | 0.00 | 0.90 | 0.03 | 81 | 1006.9 |
| 20260504180542 | 49 | 207 | 11.3 | 22.6 | 0.00 | 0.90 | 0.03 | 80 | 1006.9 |
| 20260504180051 | 50 | 203 | 11.3 | 22.6 | 0.00 | 0.90 | 0.03 | 79 | 1007.0 |
| 20260504175543 | 50 | 182 | 12.2 | 20.9 | 0.00 | 1.06 | 0.03 | 79 | 1006.8 |
| 20260504175045 | 50 | 194 | 11.3 | 20.9 | 0.00 | 1.06 | 0.03 | 79 | 1006.9 |
| 20260504174555 | 51 | 144 | 9.6 | 19.1 | 0.00 | 1.06 | 0.03 | 79 | 1006.9 |
| 20260504174044 | 51 | 186 | 9.6 | 20.0 | 0.00 | 1.06 | 0.03 | 78 | 1006.8 |
| 20260504173545 | 51 | 179 | 9.6 | 20.0 | 0.00 | 1.06 | 0.03 | 78 | 1006.8 |
| 20260504173056 | 51 | 182 | 7.8 | 20.9 | 0.00 | 1.06 | 0.03 | 78 | 1007.0 |
| 20260504172548 | 51 | 190 | 9.6 | 21.7 | 0.00 | 1.06 | 0.03 | 80 | 1007.0 |
| 20260504172043 | 50 | 196 | 11.3 | 21.7 | 0.00 | 1.06 | 0.03 | 78 | 1007.1 |
| 20260504171600 | 50 | 215 | 9.6 | 17.4 | 0.00 | 1.06 | 0.03 | 79 | 1007.2 |
| 20260504171043 | 50 | 206 | 9.6 | 17.4 | 0.00 | 1.06 | 0.03 | 80 | 1007.2 |
| 20260504170544 | 50 | 198 | 10.4 | 18.2 | 0.00 | 1.06 | 0.03 | 80 | 1007.2 |
| 20260504151042 | 47 | 205 | 11.3 | 18.2 | 0.00 | 1.66 | 0.03 | 84 | 1008.2 |
| 20260504150542 | 47 | 204 | 11.3 | 16.5 | 0.00 | 1.66 | 0.03 | 84 | 1008.2 |
| 20260504141043 | 46 | 220 | 10.4 | 14.8 | 0.00 | 2.01 | 0.03 | 84 | 1008.2 |
| 20260504140543 | 46 | 231 | 9.6 | 14.8 | 0.00 | 2.01 | 0.03 | 85 | 1008.2 |
| 20260504130545 | 45 | 230 | 9.6 | 15.6 | 0.00 | 2.11 | 0.03 | 86 | 1008.2 |
| 20260504120129 | 45 | 232 | 11.3 | 17.4 | 0.00 | 2.16 | 0.03 | 82 | 1007.8 |
| 20260504110545 | 43 | 254 | 13.9 | 21.7 | 0.00 | 2.19 | 0.03 | 84 | 1007.0 |
| 20260504100545 | 42 | 230 | 11.3 | 20.0 | 0.00 | 2.21 | 0.03 | 84 | 1005.9 |
| 20260504081549 | 41 | 339 | 10.4 | 19.1 | 0.00 | 2.24 | 0.03 | 85 | 1003.8 |
| 20260504081042 | 41 | 290 | 8.7 | 16.5 | 0.00 | 2.24 | 0.03 | 85 | 1003.7 |
| 20260504080542 | 41 | 230 | 8.7 | 19.1 | 0.00 | 2.24 | 0.03 | 85 | 1003.7 |
| 20260504050542 | 42 | 244 | 13.0 | 23.5 | 0.00 | 2.24 | 0.03 | 93 | 1001.3 |
| 20260504045542 | 42 | 235 | 13.9 | 25.2 | 0.00 | 2.24 | 0.03 | 95 | 1001.1 |
| 20260504045041 | 42 | 252 | 13.9 | 25.2 | 0.00 | 2.24 | 0.03 | 96 | 1001.1 |
| 20260504044556 | 42 | 238 | 13.9 | 25.2 | 0.00 | 2.24 | 0.03 | 96 | 1001.1 |
| 20260504044045 | 42 | 215 | 12.2 | 21.7 | 0.00 | 2.24 | 0.03 | 96 | 1001.1 |
| 20260504043542 | 42 | 259 | 12.2 | 21.7 | 0.01 | 2.24 | 0.03 | 97 | 1001.0 |
| 20260504043110 | 42 | 300 | 12.2 | 23.5 | 0.00 | 2.23 | 0.02 | 97 | 1001.0 |
| 20260504042543 | 42 | 275 | 11.3 | 25.2 | 0.00 | 2.23 | 0.02 | 97 | 1001.0 |
| 20260504042046 | 42 | 355 | 11.3 | 26.1 | 0.01 | 2.23 | 0.02 | 98 | 1000.9 |
| 20260504041550 | 42 | 269 | 12.2 | 26.1 | 0.01 | 2.23 | 0.02 | 98 | 1000.9 |
| 20260504041042 | 42 | 196 | 13.9 | 24.3 | 0.02 | 2.23 | 0.02 | 98 | 1000.9 |
| 20260504040544 | 42 | 279 | 13.0 | 24.3 | 0.02 | 2.23 | 0.02 | 98 | 1000.9 |
| 20260504040057 | 42 | 218 | 13.9 | 24.3 | 0.02 | 2.23 | 0.02 | 98 | 1000.7 |
| 20260504035541 | 42 | 246 | 12.2 | 23.5 | 0.02 | 2.23 | 0.02 | 98 | 1000.8 |
| 20260504035042 | 42 | 233 | 11.3 | 21.7 | 0.02 | 2.23 | 0.02 | 98 | 1000.7 |
| 20260504034553 | 42 | 314 | 11.3 | 21.7 | 0.02 | 2.23 | 0.02 | 98 | 1000.6 |
| 20260504034042 | 41 | 311 | 8.7 | 20.0 | 0.02 | 2.22 | 0.01 | 98 | 1000.6 |
| 20260504033542 | 41 | 300 | 9.6 | 20.0 | 0.02 | 2.22 | 0.01 | 98 | 1000.6 |
| 20260504033059 | 41 | 211 | 10.4 | 23.5 | 0.02 | 2.22 | 0.01 | 98 | 1000.6 |
| 20260504032542 | 41 | 315 | 11.3 | 24.3 | 0.01 | 2.22 | 0.00 | 98 | 1000.5 |
| 20260504032043 | 41 | 284 | 13.0 | 24.3 | 0.02 | 2.22 | 0.00 | 98 | 1000.4 |
| 20260504031557 | 41 | 308 | 14.8 | 25.2 | 0.02 | 2.22 | 0.00 | 98 | 1000.3 |
| 20260504031044 | 41 | 255 | 15.6 | 25.2 | 0.01 | 2.21 | 0.00 | 99 | 1000.3 |
| 20260504030544 | 41 | 283 | 18.2 | 24.3 | 0.02 | 2.21 | 0.00 | 99 | 1000.1 |
| 20260504030109 | 41 | 263 | 13.9 | 26.9 | 0.02 | 2.21 | 0.00 | 99 | 1000.1 |
| 20260504025544 | 41 | 323 | 14.8 | 26.9 | 0.02 | 2.21 | 2.21 | 99 | 1000.0 |
| 20260504025042 | 41 | 266 | 14.8 | 26.1 | 0.03 | 2.21 | 2.21 | 99 | 999.8 |
| 20260504024550 | 41 | 274 | 15.6 | 26.1 | 0.03 | 2.21 | 2.21 | 99 | 999.8 |
| 20260504024044 | 41 | 252 | 13.9 | 22.6 | 0.02 | 2.20 | 2.20 | 99 | 999.7 |
| 20260504023542 | 41 | 307 | 13.9 | 24.3 | 0.03 | 2.20 | 2.20 | 99 | 999.6 |
| 20260504023053 | 41 | 267 | 15.6 | 26.1 | 0.03 | 2.20 | 2.20 | 99 | 999.5 |
| 20260504022543 | 41 | 301 | 17.4 | 26.1 | 0.03 | 2.20 | 2.20 | 99 | 999.5 |
| 20260504022047 | 41 | 262 | 15.6 | 26.1 | 0.03 | 2.19 | 2.19 | 99 | 999.4 |
| 20260504021551 | 41 | 286 | 16.5 | 25.2 | 0.03 | 2.19 | 2.19 | 99 | 999.3 |
| 20260504021046 | 41 | 317 | 16.5 | 26.1 | 0.03 | 2.19 | 2.19 | 99 | 999.3 |
| 20260504020544 | 41 | 286 | 16.5 | 27.8 | 0.04 | 2.18 | 2.18 | 99 | 999.3 |
| 20260504015544 | 41 | 304 | 16.5 | 27.8 | 0.06 | 2.18 | 2.18 | 99 | 999.0 |
| 20260504015044 | 41 | 276 | 15.6 | 26.1 | 0.06 | 2.18 | 2.18 | 99 | 999.0 |
| 20260504014604 | 41 | 306 | 17.4 | 26.1 | 0.07 | 2.18 | 2.18 | 99 | 999.0 |
| 20260504014043 | 41 | 290 | 18.2 | 26.1 | 0.09 | 2.18 | 2.18 | 99 | 998.8 |
| 20260504013547 | 41 | 302 | 18.2 | 27.8 | 0.10 | 2.17 | 2.17 | 99 | 998.8 |
| 20260504013057 | 41 | 302 | 17.4 | 27.8 | 0.12 | 2.17 | 2.17 | 99 | 998.6 |
| 20260504012543 | 41 | 290 | 18.2 | 27.8 | 0.14 | 2.17 | 2.17 | 99 | 998.5 |